Location: Newark
(42.7133°N, 87.7910°W)
Time: 07:20:28
(UTC+00:00)

Vanguard 1 - Pass Details

Date: 25 September 2019
Orbit: 653 x 3830 km, 34.2° (Epoch: 20 October)

Event Time Altitude Azimuth Distance (km) Brightness Sun altitude
Rises 05:57:05 0° 225° (SW) 7,039 - -47.9°
Reaches altitude 10° 06:01:35 10° 220° (SW) 6,324 - -47.8°
Maximum altitude 06:22:14 51° 152° (SSE) 4,438 - -47.1°
Exits shadow 06:26:11 48° 129° (SE) 4,508 13.0 -46.9°
Drops below altitude 10° 06:42:21 10° 86° (E) 6,212 14.3 -46.0°
Sets 06:46:39 0° 81° (E) 6,918 14.7 -45.7°
